| time (UTC) | temp C | wind direction | speed KPH | gust KPH | rain 1hr cm | rain 24hr cm | rain mn cm | humidity % | barometer mb |
| 20260507030043 | 12 | 0.0 | 0.0 | 0.00 | 0.86 | 0.86 | 86 | 1010.3 | |
| 20260507024541 | 13 | 0.0 | 0.0 | 0.00 | 0.86 | 0.86 | 86 | 1010.4 | |
| 20260507023040 | 13 | 0.0 | 0.0 | 0.00 | 0.86 | 0.86 | 86 | 1010.2 | |
| 20260507021538 | 14 | 0.0 | 0.0 | 0.00 | 0.86 | 0.86 | 85 | 1010.0 | |
| 20260507020044 | 14 | 0.0 | 0.0 | 0.00 | 0.86 | 0.86 | 85 | 1010.2 | |
| 20260507014549 | 14 | 0.0 | 0.0 | 0.00 | 0.86 | 0.86 | 85 | 1010.3 | |
| 20260507013050 | 15 | 0.0 | 0.0 | 0.00 | 0.86 | 0.86 | 84 | 1010.5 | |
| 20260507011540 | 15 | 0.0 | 0.0 | 0.00 | 0.86 | 0.86 | 85 | 1010.3 | |
| 20260507010052 | 15 | 0.0 | 0.0 | 0.00 | 0.86 | 0.86 | 86 | 1010.3 | |
| 20260507004537 | 15 | 0.0 | 0.0 | 0.00 | 0.86 | 0.86 | 88 | 1009.9 | |
| 20260507003043 | 15 | 0.0 | 0.0 | 0.00 | 0.86 | 0.86 | 88 | 1009.9 | |
| 20260507001549 | 15 | 0.0 | 0.0 | 0.00 | 0.86 | 0.86 | 89 | 1009.6 | |
| 20260507000042 | 16 | 0.0 | 0.0 | 0.08 | 0.86 | 0.86 | 89 | 1009.0 | |
| 20260506234544 | 16 | 0.0 | 0.0 | 0.18 | 0.86 | 0.86 | 91 | 1008.4 | |
| 20260506233055 | 16 | 0.0 | 0.0 | 0.28 | 0.86 | 0.86 | 91 | 1008.3 | |
| 20260506231540 | 16 | 0.0 | 0.0 | 0.28 | 0.86 | 0.86 | 91 | 1008.3 | |
| 20260506230036 | 17 | 0.0 | 0.0 | 0.20 | 0.79 | 0.79 | 90 | 1008.3 | |
| 20260506224543 | 17 | 0.0 | 0.0 | 0.10 | 0.69 | 0.69 | 89 | 1008.3 | |
| 20260506223041 | 17 | 0.0 | 0.0 | 0.00 | 0.58 | 0.58 | 88 | 1008.2 | |
| 20260506221545 | 18 | 0.0 | 0.0 | 0.00 | 0.58 | 0.58 | 87 | 1008.3 | |
| 20260506220042 | 18 | 0.0 | 0.0 | 0.00 | 0.58 | 0.58 | 86 | 1008.0 | |
| 20260506214540 | 18 | 0.0 | 0.0 | 0.00 | 0.58 | 0.58 | 86 | 1007.8 | |
| 20260506213037 | 18 | 0.0 | 0.0 | 0.00 | 0.58 | 0.58 | 86 | 1007.7 | |
| 20260506211542 | 18 | 0.0 | 0.0 | 0.00 | 0.58 | 0.58 | 85 | 1007.5 | |
| 20260506210041 | 18 | 0.0 | 0.0 | 0.00 | 0.58 | 0.58 | 85 | 1007.4 | |
| 20260506204541 | 18 | 0.0 | 0.0 | 0.00 | 0.58 | 0.58 | 85 | 1007.4 | |
| 20260506203041 | 18 | 0.0 | 0.0 | 0.00 | 0.58 | 0.58 | 86 | 1007.3 | |
| 20260506201541 | 18 | 0.0 | 0.0 | 0.00 | 0.58 | 0.58 | 86 | 1007.4 | |
| 20260506200044 | 17 | 0.0 | 0.0 | 0.00 | 0.58 | 0.58 | 86 | 1007.4 | |
| 20260506194544 | 17 | 0.0 | 0.0 | 0.00 | 0.58 | 0.58 | 86 | 1007.6 | |
| 20260506193034 | 17 | 0.0 | 0.0 | 0.00 | 0.58 | 0.58 | 86 | 1007.6 | |
| 20260506191542 | 17 | 0.0 | 0.0 | 0.00 | 0.58 | 0.58 | 87 | 1007.6 | |
| 20260506190040 | 17 | 0.0 | 0.0 | 0.00 | 0.58 | 0.58 | 88 | 1007.6 | |
| 20260506184537 | 17 | 0.0 | 0.0 | 0.00 | 0.58 | 0.58 | 88 | 1007.8 | |
| 20260506183037 | 16 | 0.0 | 0.0 | 0.00 | 0.58 | 0.58 | 89 | 1007.9 | |
| 20260506181540 | 16 | 0.0 | 0.0 | 0.00 | 0.58 | 0.58 | 90 | 1008.0 | |
| 20260506180044 | 16 | 0.0 | 0.0 | 0.00 | 0.58 | 0.58 | 90 | 1008.2 | |
| 20260506174541 | 16 | 0.0 | 0.0 | 0.00 | 0.58 | 0.58 | 90 | 1008.2 | |
| 20260506173045 | 16 | 0.0 | 0.0 | 0.00 | 0.58 | 0.58 | 90 | 1008.2 | |
| 20260506171542 | 16 | 0.0 | 0.0 | 0.00 | 0.58 | 0.58 | 90 | 1008.1 | |
| 20260506170036 | 16 | 0.0 | 0.0 | 0.00 | 0.58 | 0.58 | 91 | 1008.1 | |
| 20260506164553 | 15 | 0.0 | 0.0 | 0.00 | 0.58 | 0.58 | 92 | 1008.2 | |
| 20260506163043 | 15 | 0.0 | 0.0 | 0.05 | 0.58 | 0.58 | 92 | 1008.2 | |
| 20260506161541 | 15 | 0.0 | 0.0 | 0.10 | 0.58 | 0.58 | 92 | 1008.3 | |
| 20260506160049 | 15 | 0.0 | 0.0 | 0.18 | 0.58 | 0.58 | 92 | 1008.5 | |
| 20260506154548 | 15 | 0.0 | 0.0 | 0.23 | 0.58 | 0.58 | 92 | 1008.2 | |
| 20260506153042 | 15 | 0.0 | 0.0 | 0.20 | 0.53 | 0.53 | 92 | 1007.9 | |
| 20260506151542 | 15 | 0.0 | 0.0 | 0.18 | 0.48 | 0.48 | 91 | 1008.8 | |
| 20260506150042 | 15 | 0.0 | 0.0 | 0.15 | 0.41 | 0.41 | 91 | 1009.1 | |
| 20260506144540 | 15 | 0.0 | 0.0 | 0.18 | 0.36 | 0.36 | 91 | 1009.4 | |
| 20260506143040 | 15 | 0.0 | 0.0 | 0.25 | 0.33 | 0.33 | 90 | 1009.2 | |
| 20260506141542 | 15 | 0.0 | 0.0 | 0.23 | 0.30 | 0.30 | 90 | 1008.9 | |
| 20260506140042 | 15 | 0.0 | 0.0 | 0.20 | 0.25 | 0.25 | 90 | 1008.8 | |
| 20260506134542 | 15 | 0.0 | 0.0 | 0.15 | 0.18 | 0.18 | 89 | 1008.8 | |
| 20260506133041 | 16 | 0.0 | 0.0 | 0.05 | 0.08 | 0.08 | 88 | 1009.0 | |
| 20260506131541 | 16 | 0.0 | 0.0 | 0.08 | 0.08 | 0.08 | 88 | 1009.1 | |
| 20260506130041 | 16 | 0.0 | 0.0 | 0.05 | 0.05 | 0.05 | 87 | 1009.0 | |
| 20260506124539 | 16 | 0.0 | 0.0 | 0.03 | 0.03 | 0.03 | 85 | 1009.2 | |
| 20260506123041 | 16 | 0.0 | 0.0 | 0.03 | 0.03 | 0.03 | 84 | 1009.3 | |
| 20260506121551 | 16 | 0.0 | 0.0 | 0.00 | 0.00 | 0.00 | 82 | 1009.5 | |
| 20260506120107 | 16 | 0.0 | 0.0 | 0.00 | 0.00 | 0.00 | 81 | 1009.4 | |
| 20260506114536 | 17 | 0.0 | 0.0 | 0.00 | 0.00 | 0.00 | 80 | 1008.9 | |
| 20260506113035 | 17 | 0.0 | 0.0 | 0.00 | 0.00 | 0.00 | 79 | 1008.9 | |
| 20260506111542 | 17 | 0.0 | 0.0 | 0.00 | 0.00 | 0.00 | 76 | 1008.7 | |
| 20260506110041 | 17 | 0.0 | 0.0 | 0.00 | 0.00 | 0.00 | 75 | 1008.6 | |
| 20260506104542 | 17 | 0.0 | 0.0 | 0.00 | 0.00 | 0.00 | 75 | 1008.3 | |
| 20260506103041 | 17 | 0.0 | 0.0 | 0.00 | 0.00 | 0.00 | 75 | 1008.3 | |
| 20260506101536 | 17 | 0.0 | 0.0 | 0.00 | 0.00 | 0.00 | 75 | 1008.1 | |
| 20260506100035 | 17 | 0.0 | 0.0 | 0.00 | 0.00 | 0.00 | 76 | 1008.0 | |
| 20260506094546 | 16 | 0.0 | 0.0 | 0.00 | 0.00 | 0.00 | 76 | 1008.1 | |
| 20260506093047 | 17 | 0.0 | 0.0 | 0.00 | 0.00 | 0.00 | 76 | 1008.1 | |
| 20260506091542 | 17 | 0.0 | 0.0 | 0.00 | 0.00 | 0.00 | 75 | 1008.2 | |
| 20260506090043 | 17 | 0.0 | 0.0 | 0.00 | 0.00 | 0.00 | 73 | 1008.5 | |
| 20260506084536 | 18 | 0.0 | 0.0 | 0.00 | 0.00 | 0.00 | 70 | 1008.3 | |
| 20260506083042 | 18 | 0.0 | 0.0 | 0.00 | 0.00 | 0.00 | 68 | 1008.5 | |
| 20260506081541 | 18 | 0.0 | 0.0 | 0.00 | 0.00 | 0.00 | 68 | 1008.4 | |
| 20260506073041 | 19 | 0.0 | 0.0 | 0.00 | 0.00 | 0.00 | 64 | 1008.6 | |
| 20260506071551 | 20 | 0.0 | 0.0 | 0.00 | 0.00 | 0.00 | 63 | 1008.7 | |
| 20260506061541 | 19 | 0.0 | 0.0 | 0.00 | 0.00 | 0.00 | 63 | 1009.2 | |
| 20260506044553 | 17 | 0.0 | 0.0 | 0.00 | 0.00 | 0.00 | 62 | 1009.8 | |
| 20260506043042 | 17 | 0.0 | 0.0 | 0.00 | 0.00 | 0.00 | 62 | 1009.7 | |
| 20260506041546 | 17 | 0.0 | 0.0 | 0.00 | 0.00 | 0.00 | 60 | 1009.9 | |
| 20260506040046 | 17 | 0.0 | 0.0 | 0.00 | 0.00 | 0.00 | 59 | 1009.8 | |
| 20260506034543 | 17 | 0.0 | 0.0 | 0.00 | 0.00 | 0.00 | 59 | 1010.0 | |
| 20260506033042 | 17 | 0.0 | 0.0 | 0.00 | 0.00 | 0.00 | 58 | 1009.9 | |
| 20260506031554 | 18 | 0.0 | 0.0 | 0.00 | 0.00 | 0.00 | 58 | 1009.9 |